Temp
23 25 24 24 24 23 25 26 26 22 22 23 23 22 23 24 24 24 23 25 25 25
23 24 25 24 24 23 24 25 25 24 23 22 22 23 24 25 23 24 24 25 25 25
25 23 25 24 24 23 23 24 24 24 24 23 22 23 24 23 23 23 24 26 25 24
27 26 25 24 23 23 24 23 24 24 24 23 22 23 23 23 23 23 24 24 23 23
27 27 26 25 23 24 23 22 23 24 23 23 23 23 22 23 23 23 23 23 22 23
27 26 27 25 24 24 23 22 23 23 23 22 22 22 22 22 23 23 23 22 22 22
27 27 27 27 24 23 22 23 22 23 22 22 23 22 22 22 22 23 22 22 22 22
26 26 26 26 24 22 22 22 22 22 23 23 23 23 22 22 22 22 22 22 22 22
26 25 25 25 24 22 22 22 22 23 22 23 23 23 22 22 22 22 21 21 21 21
25 25 25 24 23 22 22 22 22 22 22 22 22 22 22 22 22 21 21 21 21 22
25 25 24 23 23 23 22 22 22 22 21 21 21 21 21 21 22 22 21 21 21 22
25 24 24 24 24 23 22 22 22 22 21 22 20 21 20 21 22 21 20 20 20 20
25 24 24 24 23 22 22 22 24 23 21 21 20 20 20 21 22 21 21 20 20 20
24 24 24 24 23 23 23 23 24 23 21 20 20 20 21 21 22 23 22 21 20 20
Height
812 814 816 818 821 824 824 825 825 829 831 833 836 838 839 839 839 839 839 841 841 839
808 811 812 815 817 820 821 823 824 827 830 831 832 834 836 836 837 838 838 838 840 839
803 807 809 812 814 816 818 819 823 824 827 829 830 831 834 835 835 836 837 837 839 839
797 801 805 807 810 813 815 817 820 822 825 827 828 830 833 833 834 834 836 837 839 840
793 796 799 804 806 809 811 814 816 819 822 825 827 829 830 831 833 834 836 837 838 840
788 792 794 798 803 805 807 810 814 816 819 823 826 826 828 830 831 834 835 837 838 840
783 786 790 793 797 800 804 807 810 813 817 820 823 825 826 828 830 834 835 836 837 840
779 783 786 789 792 796 800 804 807 810 813 817 820 823 825 827 831 833 835 835 836 838
775 780 783 786 789 794 797 800 804 807 810 814 817 820 823 826 829 832 833 834 835 836
772 777 780 784 787 791 794 796 800 804 808 811 815 817 820 824 827 830 832 833 835 836
770 774 778 782 785 788 792 794 796 800 805 810 812 816 819 824 826 828 830 831 834 834
768 772 775 778 781 785 790 793 795 799 805 807 809 812 817 821 824 826 828 830 831 833
764 770 772 776 779 783 788 791 794 797 802 805 806 808 814 817 821 825 827 828 829 830
760 766 770 773 777 781 786 790 792 796 799 801 802 805 809 814 818 820 824 826 827 829
Wind_Speed
21 18 17 18 15 15 16 15 9 13 13 16 17 14 12 10 10 7 5 3 3 7
22 20 18 16 17 17 17 14 13 12 11 10 12 14 13 11 6 7 8 6 3 6
20 20 18 17 17 16 16 13 15 13 12 11 14 14 12 10 8 8 7 4 4 5
21 20 19 19 18 17 17 17 14 12 13 12 13 11 11 8 7 7 4 3 4 5
20 19 20 19 20 18 19 17 18 15 12 11 12 11 9 7 8 7 6 5 5 5
22 21 21 20 19 21 19 19 19 16 15 12 10 10 9 8 7 6 6 6 7 6
23 21 21 19 20 21 20 20 20 17 15 13 11 10 10 10 8 7 7 7 8 7
21 20 19 17 18 19 21 20 20 18 15 14 13 12 13 11 9 9 9 8 8 7
20 19 18 16 17 16 18 20 19 19 17 16 15 12 15 12 11 10 10 9 8 6
20 20 18 17 15 16 18 18 19 21 18 17 13 15 15 15 11 11 10 9 10 9
20 19 18 17 16 16 16 17 20 18 19 18 15 14 16 17 10 10 10 10 11 8
20 19 19 18 18 16 15 15 14 18 18 17 14 16 18 18 11 10 11 11 10 9
21 20 20 19 18 17 17 15 17 17 15 17 16 20 22 18 11 12 12 12 12 15
22 21 21 20 19 18 18 16 13 16 16 16 18 19 22 22 15 13 14 14 14 14
Wind_Direction
214 222 223 223 218 220 229 242 191 187 218 231 234 235 230 243 243 240 218 201 278 248
206 218 216 218 220 223 228 231 215 202 206 224 207 213 224 232 234 229 209 191 220 253
207 213 222 211 217 219 226 220 214 206 215 206 212 212 222 228 227 211 202 205 179 236
207 208 213 209 209 214 215 220 212 202 210 210 207 215 227 225 221 200 182 136 177 225
209 211 208 213 212 212 209 213 203 205 205 205 203 204 212 207 208 183 192 176 169 192
205 209 218 207 218 210 210 211 201 201 195 193 196 199 198 191 176 192 195 184 167 182
210 211 214 213 208 216 211 206 198 197 187 192 193 197 184 176 185 193 188 179 176 187
206 208 213 206 209 214 211 205 203 193 189 188 193 191 179 174 182 191 185 178 179 185
191 204 209 206 213 206 203 203 198 195 192 187 183 185 176 173 185 189 185 180 181 185
182 199 203 201 197 198 198 196 191 191 188 183 172 190 186 175 187 186 188 180 188 187
187 195 198 192 191 198 194 190 190 183 180 176 182 186 182 180 183 185 187 185 194 204
188 195 193 194 192 194 185 187 180 172 171 170 178 186 186 177 185 185 185 185 187 189
185 196 189 190 189 184 182 182 175 166 177 180 182 188 187 179 190 185 188 188 189 187
183 192 191 184 181 180 183 176 180 178 187 187 198 193 192 187 202 190 197 195 194 199